TimeCST,TemperatureF,Dew PointF,Humidity,Sea Level PressureIn,VisibilityMPH,Wind Direction,Wind SpeedMPH,Gust SpeedMPH,PrecipitationIn,Events,Conditions,WindDirDegrees,DateUTC
1:45 AM,10.4,6.8,85,30.10,1.2,Calm,Calm,-,N/A,,Clear,0,2013-01-05 07:45:00
1:50 AM,8.6,6.8,92,30.10,4.0,Calm,Calm,-,N/A,,Clear,0,2013-01-05 07:50:00
1:54 AM,8.1,6.1,92,30.17,7.0,Calm,Calm,-,N/A,,Clear,0,2013-01-05 07:54:00
2:54 AM,9.0,6.1,88,30.15,6.0,Calm,Calm,-,N/A,,Clear,0,2013-01-05 08:54:00
3:54 AM,9.0,7.0,92,30.17,5.0,Calm,Calm,-,N/A,,Clear,0,2013-01-05 09:54:00
4:54 AM,7.0,3.9,87,30.14,7.0,ENE,4.6,-,N/A,,Clear,60,2013-01-05 10:54:00
5:54 AM,8.1,5.0,87,30.13,6.0,Calm,Calm,-,N/A,,Clear,0,2013-01-05 11:54:00
6:54 AM,6.1,3.0,87,30.11,6.0,ESE,4.6,-,N/A,,Clear,110,2013-01-05 12:54:00
7:54 AM,8.1,5.0,87,30.10,5.0,Calm,Calm,-,N/A,,Clear,0,2013-01-05 13:54:00
8:54 AM,10.9,8.1,88,30.09,5.0,South,4.6,-,N/A,,Clear,170,2013-01-05 14:54:00
9:54 AM,12.9,10.9,92,30.07,4.0,Calm,Calm,-,N/A,,Clear,0,2013-01-05 15:54:00
11:54 AM,23.0,19.0,85,29.99,9.0,SSW,6.9,-,N/A,,Clear,200,2013-01-05 17:54:00
12:54 PM,28.9,19.0,67,29.94,10.0,SSW,5.8,-,N/A,,Clear,210,2013-01-05 18:54:00
1:54 PM,28.9,18.0,64,29.91,10.0,SSW,5.8,-,N/A,,Clear,210,2013-01-05 19:54:00
2:54 PM,30.9,18.0,59,29.89,10.0,South,4.6,-,N/A,,Clear,190,2013-01-05 20:54:00
3:54 PM,32.0,19.9,61,29.88,10.0,SSW,9.2,-,N/A,,Clear,200,2013-01-05 21:54:00
4:54 PM,30.0,19.0,64,29.89,10.0,SW,10.4,24.2,N/A,,Clear,230,2013-01-05 22:54:00
5:54 PM,28.0,19.0,69,29.89,10.0,SW,6.9,-,N/A,,Clear,220,2013-01-05 23:54:00
6:54 PM,28.0,21.0,75,29.90,10.0,SW,6.9,-,N/A,,Overcast,230,2013-01-06 00:54:00
7:54 PM,28.0,21.0,75,29.91,10.0,West,5.8,-,N/A,,Overcast,270,2013-01-06 01:54:00
8:54 PM,26.1,19.9,78,29.91,9.0,WNW,12.7,-,N/A,,Overcast,290,2013-01-06 02:54:00
9:54 PM,23.0,16.0,74,29.91,8.0,NW,10.4,-,N/A,,Overcast,310,2013-01-06 03:54:00
10:54 PM,21.0,14.0,74,29.92,8.0,WNW,11.5,-,N/A,,Mostly Cloudy,300,2013-01-06 04:54:00
11:03 PM,21.2,12.2,68,29.86,8.0,NW,13.8,19.6,N/A,,Mostly Cloudy,310,2013-01-06 05:03:00
11:54 PM,19.0,12.0,74,29.91,7.0,WNW,9.2,-,N/A,,Scattered Clouds,300,2013-01-06 05:54:00